Hondo, TX

12:42 AM CST on December 06, 2019 (GMT -0600)
Hondo Municipal

Weather History for KHDO - October, 2019

Change the Weather History Date:

Thursday, October 10, 2019

  Actual Average Record
Temperature  
Mean Temperature 87 °F -  
Max Temperature 97 °F 80 °F 97 °F (2019)
Min Temperature 77 °F 58 °F 41 °F (2000)
Cooling Degree Days 22    
Growing Degree Days 37 (Base 50)    
Moisture  
Dew Point 69 °F    
Average Humidity 64    
Maximum Humidity 82    
Minimum Humidity 32    
Precipitation  
Precipitation 0.00 in - - ()
Sea Level Pressure  
Sea Level Pressure 29.80 in    
Wind  
Wind Speed 14 mph (SSE)    
Max Wind Speed 18 mph    
Max Gust Speed 29 mph    
Visibility 10 miles    
Events      
Averages and records for this station are not official NWS values.
T = Trace of Precipitation, MM = Missing Value Source: NWS Daily Summary

Daily Weather History Graph

Daily Weather History Graph

Search for Another Location

Airport or City:

Astronomy

Oct. 10, 2019 Rise Set
Actual Time 7:34 AM CDT 7:12 PM CDT
Civil Twilight 7:11 AM CDT 7:35 PM CDT
Nautical Twilight 6:43 AM CDT 8:03 PM CDT
Astronomical Twilight 6:15 AM CDT 8:30 PM CDT
Moon 5:55 PM CDT (10/10) 4:41 AM CDT (10/10)
Length of Visible Light 12h 24m
Length of Day
11h 37m
Waxing Gibbous, 91% of the Moon is Illuminated
Oct 10
Waxing Gibbous
Oct 13
Full
Oct 21
Last Quarter
Oct 27
New
Nov 4
First Quarter

Hourly Weather History & Observations

Time (CDT) Temp. Heat Index Dew Point Humidity Pressure Visibility Wind Dir Wind Speed Gust Speed Precip Events Conditions
12:51 AM 78.1 °F - 70.0 °F 76% 29.81 in 10.0 mi SE 12.7 mph - N/A   Partly Cloudy
1:15 AM 77.0 °F - 70.0 °F 79% 29.86 in 10.0 mi SSE 11.5 mph - N/A   Mostly Cloudy
1:51 AM 78.1 °F - 71.1 °F 79% 29.81 in 10.0 mi SSE 15.0 mph - N/A   Overcast
2:51 AM 78.1 °F - 71.1 °F 79% 29.81 in 10.0 mi SSE 15.0 mph 21.9 mph N/A   Overcast
3:51 AM 78.1 °F - 71.1 °F 79% 29.81 in 10.0 mi SSE 16.1 mph - N/A   Overcast
4:51 AM 77.0 °F - 70.0 °F 79% 29.81 in 10.0 mi SSE 12.7 mph - N/A   Mostly Cloudy
5:51 AM 77.0 °F - 71.1 °F 82% 29.81 in 10.0 mi SSE 13.8 mph - N/A   Mostly Cloudy
6:51 AM 77.0 °F - 70.0 °F 79% 29.82 in 10.0 mi SSE 12.7 mph - N/A   Mostly Cloudy
7:10 AM 77.0 °F - 71.1 °F 82% 29.88 in 10.0 mi SSE 11.5 mph - N/A   Overcast
7:32 AM 77.0 °F - 71.1 °F 82% 29.88 in 10.0 mi SSE 13.8 mph - N/A   Overcast
7:51 AM 77.0 °F - 71.1 °F 82% 29.84 in 10.0 mi SSE 13.8 mph - N/A   Overcast
8:51 AM 79.0 °F - 71.1 °F 77% 29.85 in 10.0 mi SSE 15.0 mph - N/A   Scattered Clouds
9:09 AM 79.0 °F - 71.1 °F 77% 29.90 in 10.0 mi SSE 13.8 mph 21.9 mph N/A   Mostly Cloudy
9:22 AM 80.1 °F 83.6 °F 71.1 °F 74% 29.90 in 10.0 mi SSE 16.1 mph - N/A   Mostly Cloudy
9:38 AM 81.0 °F 84.4 °F 70.0 °F 69% 29.91 in 10.0 mi South 18.4 mph 23.0 mph N/A   Overcast
9:51 AM 82.0 °F 85.5 °F 69.1 °F 65% 29.86 in 10.0 mi South 17.3 mph 28.8 mph N/A   Overcast
10:51 AM 82.9 °F 87.0 °F 70.0 °F 65% 29.86 in 10.0 mi South 13.8 mph - N/A   Mostly Cloudy
11:51 AM 88.0 °F 91.4 °F 68.0 °F 51% 29.84 in 10.0 mi South 16.1 mph 23.0 mph N/A   Partly Cloudy
12:51 PM 90.0 °F 92.8 °F 66.9 °F 46% 29.81 in 10.0 mi SSW 15.0 mph 23.0 mph N/A   Scattered Clouds
1:51 PM 93.0 °F 95.9 °F 66.0 °F 41% 29.77 in 10.0 mi South 16.1 mph 21.9 mph N/A   Clear
2:51 PM 95.0 °F 97.4 °F 64.9 °F 37% 29.73 in 10.0 mi SSE 17.3 mph 23.0 mph N/A   Clear
3:51 PM 97.0 °F 99.3 °F 64.0 °F 34% 29.71 in 10.0 mi South 13.8 mph 23.0 mph N/A   Clear
4:51 PM 96.1 °F 97.3 °F 63.0 °F 33% 29.70 in 10.0 mi South 13.8 mph - N/A   Clear
5:51 PM 96.1 °F 96.9 °F 62.1 °F 32% 29.69 in 10.0 mi South 15.0 mph - N/A   Clear
6:51 PM 93.0 °F 93.8 °F 62.1 °F 36% 29.69 in 10.0 mi SSE 9.2 mph - N/A   Clear
7:51 PM 89.1 °F 90.0 °F 63.0 °F 42% 29.70 in 10.0 mi SE 9.2 mph - N/A   Clear
8:51 PM 88.0 °F 89.6 °F 64.9 °F 46% 29.72 in 10.0 mi SE 15.0 mph - N/A   Clear
9:51 PM 84.0 °F 89.6 °F 72.0 °F 67% 29.75 in 10.0 mi SE 18.4 mph 27.6 mph N/A   Clear
10:51 PM 82.0 °F 86.7 °F 72.0 °F 71% 29.78 in 10.0 mi SE 16.1 mph 23.0 mph N/A   Clear
11:51 PM 80.1 °F 83.8 °F 72.0 °F 76% 29.78 in 10.0 mi SSE 15.0 mph - N/A   Clear